Temperature
8 8 8 8 8 8 8 7 7 7 7 8 8 8 7 7 7 7 8 7 7 7 7 7 7 7 7 7 7 7 6 6 6 6 6 6 5 5
7 7 7 8 7 7 7 7 7 7 7 7 7 7 7 7 7 7 7 7 7 7 7 7 7 6 6 6 6 6 6 6 6 5 5 5 5 5
7 7 7 7 7 7 7 7 7 6 6 6 7 7 6 7 7 6 6 6 6 6 6 6 6 6 6 6 6 6 6 5 5 5 5 4 4 4
6 6 6 6 6 6 6 6 6 6 6 6 6 6 6 6 6 6 6 6 6 6 6 6 6 6 5 5 5 5 5 5 4 4 4 4 4 4
6 6 6 6 6 6 6 6 6 5 5 5 5 6 6 6 6 6 5 5 5 5 5 5 5 5 5 5 5 5 4 4 4 4 4 3 3 3
6 6 5 5 5 5 5 5 5 5 5 5 5 5 5 5 5 5 5 5 5 5 5 5 5 5 4 4 4 4 4 4 4 3 3 3 3 3
5 5 5 5 5 5 5 5 5 4 4 4 4 4 4 4 4 4 4 4 4 4 4 4 4 4 4 4 4 4 3 3 3 3 3 3 3 3
5 5 5 5 5 5 4 4 4 4 4 4 4 4 4 4 3 3 3 3 3 3 3 4 4 4 4 3 3 3 3 3 3 3 2 2 2 2
5 4 4 4 4 4 4 4 4 4 3 3 3 3 3 3 3 2 2 2 2 2 2 3 3 3 3 3 3 3 3 3 2 2 2 2 2 2
4 4 4 4 4 4 4 4 3 3 3 3 3 3 2 2 2 2 1 1 2 2 1 2 2 2 2 2 2 2 2 2 2 2 1 1 2 2
4 3 3 3 3 3 3 3 3 3 3 2 2 2 2 2 1 1 1 1 1 1 1 0 1 1 2 2 2 2 2 1 1 1 1 1 1 1
3 3 3 3 3 3 3 3 3 3 2 2 2 2 1 1 1 1 0 -0 -0 -0 0 -0 -0 -1 -0 1 1 1 1 1 1 1 1 1 1 1
3 3 3 3 2 2 2 2 2 2 2 1 1 1 1 1 1 0 -0 -1 -1 -1 -1 -1 -1 -2 -2 -1 -0 0 0 0 0 0 0 1 0 0
2 2 2 2 2 2 2 2 1 1 1 1 1 1 1 1 0 0 -0 -1 -1 -1 -1 -2 -2 -2 -2 -2 -2 -1 -0 -1 -0 -0 -0 -0 0 0
2 2 2 1 1 1 1 1 1 0 0 0 0 0 0 -0 -0 -0 -1 -1 -1 -1 -1 -2 -2 -2 -3 -3 -3 -2 -1 -1 -1 -1 -1 -1 -0 -0
1 1 1 1 1 0 0 0 0 0 -0 -0 -0 -0 -1 -1 -1 -1 -1 -2 -2 -1 -2 -2 -2 -3 -3 -3 -3 -3 -3 -3 -2 -2 -1 -1 -1 -1
1 0 0 0 0 0 0 -0 -0 -0 -1 -1 -1 -1 -1 -1 -1 -2 -2 -2 -2 -2 -2 -2 -2 -3 -3 -3 -3 -3 -3 -3 -2 -2 -2 -2 -1 -1
-0 -0 -0 -0 -0 -0 -0 -1 -1 -1 -1 -1 -1 -1 -1 -2 -2 -2 -2 -3 -3 -3 -3 -3 -3 -3 -3 -3 -3 -3 -3 -3 -3 -3 -3 -2 -2 -1
-1 -1 -0 -0 -0 -1 -1 -1 -1 -1 -1 -2 -2 -2 -2 -2 -3 -3 -3 -3 -3 -3 -3 -3 -4 -4 -4 -4 -4 -3 -4 -4 -3 -3 -3 -3 -3 -2
-1 -1 -0 -0 -1 -1 -1 -1 -1 -2 -2 -2 -2 -2 -3 -3 -3 -3 -3 -3 -3 -4 -4 -4 -4 -4 -5 -5 -4 -4 -4 -4 -4 -4 -3 -3 -3 -2
-1 -1 -1 -1 -1 -1 -1 -1 -2 -2 -2 -2 -2 -3 -3 -3 -3 -3 -3 -4 -4 -4 -4 -4 -4 -4 -5 -5 -5 -4 -4 -4 -4 -4 -4 -4 -3 -3
-1 -1 -1 -1 -1 -1 -2 -2 -2 -2 -2 -3 -3 -3 -3 -3 -4 -4 -4 -4 -4 -4 -4 -5 -5 -5 -5 -5 -5 -5 -4 -4 -4 -4 -4 -4 -4 -4
-1 -1 -1 -1 -2 -2 -2 -2 -2 -2 -3 -3 -3 -3 -4 -4 -4 -4 -4 -4 -4 -5 -5 -5 -5 -5 -5 -5 -5 -5 -5 -4 -4 -4 -4 -4 -4 -4
Wind_Speed
4 4 4 3 3 3 3 4 4 4 5 4 3 2 2 3 4 4 5 6 8 9 10 11 12 12 12 12 13 13 14 14 15 16 17 17 17 18
3 4 4 3 3 3 4 4 4 5 5 3 3 2 2 3 5 4 6 7 8 9 10 11 12 12 12 12 12 13 14 15 15 16 17 16 17 18
4 4 5 4 3 3 3 3 4 4 5 3 2 2 2 3 3 4 5 6 6 9 10 11 11 11 11 11 12 13 14 14 14 15 16 17 17 17
5 5 5 3 4 4 3 4 4 4 4 4 2 2 3 3 3 3 4 5 5 7 8 9 9 10 11 12 12 12 13 13 14 14 15 16 17 17
5 5 5 5 5 4 4 4 3 3 2 3 3 2 2 2 3 3 3 3 5 7 8 8 9 10 11 12 12 12 12 12 13 13 14 15 16 17
5 5 5 5 5 5 4 4 3 3 2 2 3 2 2 2 1 2 3 3 4 5 6 8 9 11 11 12 12 12 12 12 13 14 15 15 16 17
5 5 5 6 7 6 4 4 4 3 3 3 3 2 2 2 2 2 3 4 4 3 4 4 5 5 7 10 11 12 12 13 14 14 15 16 16 17
6 5 5 6 7 8 8 7 7 5 5 4 3 4 4 3 2 2 2 3 3 2 3 5 4 5 5 6 10 12 13 13 14 15 15 16 16 17
6 5 5 5 6 4 5 5 5 6 6 5 5 5 4 4 3 3 3 3 4 3 4 5 3 5 5 8 12 12 13 14 14 15 16 16 16 17
6 6 6 5 5 5 4 3 3 3 4 3 4 4 3 3 3 3 3 3 3 3 1 4 4 4 6 7 11 12 13 13 14 15 16 17 17 17
6 6 6 6 8 8 5 4 3 2 2 3 3 3 3 2 1 1 0 1 3 3 1 2 3 5 5 5 7 11 12 13 15 16 16 17 17 16
4 5 9 9 10 9 6 6 5 4 3 2 1 1 1 1 1 1 2 2 2 3 1 1 3 4 4 4 4 6 8 12 16 16 17 17 17 11
5 5 5 9 10 10 8 6 7 5 4 3 2 2 1 1 1 1 2 2 3 4 2 1 2 2 3 5 5 4 5 7 9 11 15 17 17 12
6 5 5 8 9 9 7 7 7 5 3 3 3 2 2 2 1 1 2 3 3 5 4 3 3 3 4 6 6 5 5 6 6 7 8 14 14 15
5 8 8 8 8 6 7 8 6 4 4 3 3 3 2 2 1 1 2 2 3 4 4 4 4 4 4 6 6 6 7 6 6 6 7 7 7 7
5 7 8 8 6 6 5 4 4 4 4 4 3 2 2 1 1 1 2 2 2 3 3 4 5 5 5 7 7 8 7 6 6 7 8 7 6 6
5 3 3 4 4 4 4 4 3 3 3 3 3 3 2 2 2 1 2 2 2 3 4 3 4 5 6 6 6 7 7 6 7 7 7 8 7 6
7 5 6 6 6 6 5 5 4 4 4 4 3 3 3 3 2 2 2 2 3 4 4 4 4 4 4 4 7 7 6 6 6 7 5 6 8 7
7 6 6 6 6 6 5 5 5 4 4 4 4 4 3 3 3 3 2 3 3 3 4 3 3 3 5 6 4 4 4 6 6 6 5 5 7 8
5 6 6 6 6 6 5 5 5 4 4 4 4 4 4 3 3 3 3 3 3 3 4 3 3 3 4 5 5 5 6 6 5 6 6 6 7 9
6 6 6 5 5 5 5 5 5 5 5 5 5 5 4 4 4 4 3 4 3 3 4 4 5 6 4 3 4 5 5 6 7 6 6 6 6 5
6 6 6 6 6 6 6 5 5 5 6 5 5 5 4 4 4 4 4 3 3 3 4 4 4 3 2 3 5 6 7 6 7 10 8 6 4 3
6 6 6 6 6 6 6 6 7 6 6 6 5 5 5 4 4 4 3 3 3 3 3 3 3 3 3 3 4 5 7 7 6 6 6 7 8 10
Wind_Direction
229 224 226 227 218 217 206 199 203 240 253 242 241 247 262 263 269 270 275 279 283 287 290 294 296 296 295 297 297 299 300 298 296 295 292 290 289 289
234 223 227 227 223 218 213 213 211 218 245 236 234 261 266 280 275 280 273 279 281 285 288 292 295 297 296 295 297 299 300 298 298 298 296 292 291 291
242 233 232 220 221 222 219 217 218 214 240 264 255 274 263 270 287 283 278 274 278 283 287 292 294 296 301 303 304 303 301 300 300 300 300 297 294 293
242 238 239 227 221 221 217 219 220 215 223 253 270 271 267 269 277 284 294 289 286 294 296 299 302 304 307 307 307 307 307 305 303 301 302 303 302 299
234 231 234 223 226 224 219 221 224 227 219 237 262 272 278 282 299 300 301 296 298 298 298 299 302 307 309 308 309 310 310 309 308 307 306 306 306 304
233 230 228 222 225 220 219 216 212 215 217 229 256 271 274 281 286 295 306 308 308 307 303 302 303 306 308 308 309 308 308 309 309 309 307 306 305 305
237 231 229 226 224 218 214 207 202 210 212 229 249 266 269 272 269 274 290 306 304 298 309 307 304 302 304 305 307 307 308 308 308 308 307 306 305 304
237 237 235 232 233 233 227 216 202 202 210 219 237 240 252 255 260 269 291 305 297 312 320 305 300 294 294 297 303 306 308 309 309 309 309 307 304 303
228 228 237 234 227 221 227 228 226 224 215 208 219 235 239 236 234 253 260 272 273 291 313 296 295 291 292 301 305 305 309 311 312 313 312 309 307 305
225 220 223 227 219 205 198 203 217 229 226 219 218 232 235 227 218 234 247 275 287 292 281 281 298 293 301 302 305 312 314 315 316 315 314 314 312 310
226 220 217 222 223 212 197 199 212 231 235 214 221 231 239 237 201 161 255 300 295 290 281 278 298 305 297 291 305 317 320 322 322 320 319 319 317 313
226 225 227 225 221 214 199 194 209 216 192 181 204 246 235 229 232 199 197 241 275 281 272 294 299 323 311 291 299 320 323 321 323 321 320 321 321 318
222 223 224 221 221 218 211 203 210 201 183 186 194 198 199 213 238 218 207 214 240 256 265 289 282 289 284 296 301 301 310 314 320 319 318 318 319 318
219 216 214 215 217 216 215 209 206 202 182 182 194 207 218 236 241 240 238 238 240 247 257 253 256 269 286 292 294 305 307 306 309 310 312 315 316 315
217 211 208 213 213 214 211 205 201 193 185 197 210 222 220 222 237 270 282 279 284 278 267 250 250 261 266 275 285 294 303 304 305 308 311 311 312 315
209 206 207 211 205 196 198 203 201 194 194 203 202 204 198 206 224 233 257 284 295 293 284 271 261 257 269 270 274 283 288 292 307 311 306 304 308 308
180 176 185 187 194 195 194 196 195 192 201 192 189 196 203 216 232 230 242 264 269 284 296 295 281 266 256 263 275 279 285 287 289 301 307 308 308 310
186 193 202 204 207 206 204 203 201 201 198 195 196 199 206 220 233 238 244 253 267 277 287 298 310 313 301 271 245 267 281 285 295 301 298 303 306 311
201 205 209 209 209 206 203 202 203 197 189 194 201 203 206 215 227 237 247 262 273 282 286 291 299 306 308 306 291 248 271 294 302 304 301 293 295 303
205 211 214 210 206 204 202 200 196 189 190 197 201 201 203 211 224 235 243 253 267 282 288 285 277 279 279 283 289 292 283 282 296 302 302 296 289 289
209 212 212 206 203 202 198 194 193 194 194 196 201 202 203 206 220 230 240 251 262 271 278 282 279 291 285 279 286 290 293 288 285 289 297 301 303 308
210 211 209 204 199 198 193 191 193 195 194 200 202 202 203 205 215 224 232 242 253 262 275 285 298 312 302 284 291 296 302 308 305 302 293 276 272 289
211 209 206 202 198 195 192 193 195 198 197 197 198 200 200 204 211 219 230 241 251 264 280 294 307 310 298 289 293 297 304 313 318 321 313 309 290 278
Height
1477 1477 1477 1477 1478 1479 1479 1480 1481 1479 1477 1478 1478 1478 1478 1477 1476 1475 1474 1473 1472 1471 1470 1469 1467 1466 1465 1463 1461 1460 1458 1456 1454 1453 1451 1450 1448 1446
1472 1472 1472 1473 1473 1474 1474 1475 1475 1475 1473 1473 1473 1473 1473 1472 1471 1470 1469 1468 1467 1465 1464 1463 1462 1460 1459 1458 1456 1454 1452 1450 1448 1447 1445 1443 1442 1440
1467 1467 1467 1468 1468 1469 1469 1470 1470 1470 1469 1468 1469 1468 1468 1467 1466 1465 1464 1463 1461 1460 1459 1458 1456 1455 1453 1452 1450 1448 1446 1444 1442 1440 1439 1437 1435 1434
1463 1463 1463 1463 1463 1464 1464 1465 1465 1465 1465 1464 1463 1463 1463 1462 1461 1460 1459 1458 1456 1455 1454 1453 1451 1449 1448 1446 1444 1442 1440 1438 1436 1434 1433 1431 1429 1427
1458 1458 1459 1459 1459 1460 1460 1460 1460 1460 1460 1460 1459 1458 1457 1457 1456 1455 1454 1453 1452 1450 1449 1448 1446 1444 1442 1440 1439 1437 1435 1433 1431 1429 1427 1424 1422 1420
1454 1454 1454 1454 1455 1455 1455 1455 1455 1456 1456 1455 1454 1453 1453 1452 1451 1450 1448 1448 1447 1446 1444 1443 1441 1439 1437 1435 1433 1431 1429 1427 1425 1423 1421 1418 1416 1414
1449 1449 1449 1450 1450 1450 1451 1451 1451 1451 1451 1450 1450 1449 1448 1447 1446 1445 1444 1443 1442 1441 1439 1438 1436 1434 1432 1430 1428 1426 1424 1422 1420 1417 1415 1412 1410 1407
1443 1444 1444 1444 1445 1445 1446 1446 1446 1446 1445 1446 1445 1444 1443 1443 1442 1441 1440 1438 1436 1437 1434 1432 1431 1429 1427 1426 1423 1421 1419 1417 1414 1411 1409 1406 1403 1401
1438 1439 1439 1439 1440 1440 1440 1440 1441 1441 1442 1441 1440 1439 1439 1438 1438 1436 1436 1434 1433 1431 1430 1427 1426 1424 1423 1421 1419 1417 1414 1411 1409 1406 1403 1400 1397 1394
1433 1433 1434 1434 1434 1435 1435 1435 1436 1436 1436 1436 1436 1435 1435 1434 1433 1433 1431 1430 1429 1427 1426 1423 1420 1419 1418 1416 1414 1412 1409 1406 1404 1401 1398 1395 1392 1388
1428 1428 1428 1429 1430 1430 1430 1430 1430 1431 1431 1431 1431 1430 1430 1429 1429 1428 1427 1425 1423 1422 1422 1419 1416 1414 1412 1410 1409 1407 1404 1402 1399 1396 1393 1390 1387 1383
1422 1422 1423 1424 1424 1425 1425 1425 1425 1425 1426 1426 1426 1426 1425 1425 1424 1424 1423 1422 1420 1418 1417 1416 1413 1411 1407 1405 1404 1402 1400 1397 1394 1391 1388 1385 1382 1378
1416 1417 1418 1418 1419 1419 1420 1420 1420 1421 1421 1421 1421 1421 1421 1420 1420 1419 1419 1418 1417 1415 1414 1412 1410 1408 1406 1401 1399 1398 1395 1392 1389 1386 1383 1380 1377 1374
1411 1412 1412 1413 1414 1414 1415 1415 1416 1416 1416 1416 1416 1416 1416 1416 1415 1415 1414 1414 1413 1412 1410 1409 1407 1405 1402 1398 1395 1392 1390 1388 1384 1381 1378 1375 1372 1369
1405 1406 1407 1408 1408 1409 1410 1410 1411 1411 1411 1411 1411 1411 1412 1412 1411 1410 1410 1409 1408 1407 1406 1405 1403 1401 1399 1396 1392 1389 1385 1382 1380 1377 1374 1371 1367 1364
1400 1401 1402 1402 1403 1404 1405 1405 1406 1406 1406 1407 1407 1407 1407 1407 1407 1406 1405 1404 1403 1403 1402 1401 1399 1397 1394 1392 1389 1385 1382 1379 1376 1373 1370 1366 1364 1361
1395 1395 1396 1397 1398 1398 1399 1400 1401 1401 1402 1402 1402 1403 1403 1403 1402 1402 1401 1400 1399 1398 1397 1396 1395 1393 1390 1388 1385 1382 1379 1376 1372 1369 1366 1362 1359 1357
1389 1389 1390 1391 1392 1393 1394 1395 1396 1397 1397 1398 1398 1399 1399 1399 1398 1398 1397 1396 1395 1394 1392 1391 1390 1387 1385 1383 1382 1378 1375 1372 1369 1366 1363 1359 1355 1354
1383 1383 1385 1386 1387 1388 1389 1390 1391 1392 1393 1394 1394 1394 1395 1395 1394 1394 1393 1392 1391 1390 1389 1388 1386 1384 1382 1379 1377 1376 1372 1368 1365 1362 1360 1356 1353 1350
1378 1378 1379 1381 1382 1383 1384 1385 1387 1388 1388 1389 1390 1390 1391 1391 1391 1390 1390 1389 1388 1386 1385 1384 1383 1381 1379 1377 1374 1371 1370 1366 1362 1359 1356 1353 1350 1348
1372 1373 1375 1376 1377 1378 1379 1381 1382 1383 1384 1385 1386 1386 1386 1387 1387 1387 1386 1385 1384 1383 1382 1380 1379 1378 1376 1374 1371 1367 1366 1364 1360 1357 1353 1350 1347 1344
1367 1368 1370 1371 1372 1373 1375 1376 1377 1378 1379 1380 1381 1382 1382 1383 1383 1383 1382 1381 1381 1380 1378 1377 1376 1375 1373 1371 1368 1365 1362 1360 1357 1355 1352 1349 1346 1343
1362 1363 1364 1366 1367 1368 1370 1371 1372 1373 1375 1376 1377 1378 1378 1379 1379 1379 1379 1378 1377 1376 1375 1374 1373 1371 1370 1368 1365 1362 1359 1357 1354 1351 1349 1347 1345 1343